Location: *
(44.1392°N, 4.8079°E)
Time: 08:10:57
(UTC+00:00)

NOSS 5 (C) - Visible Passes

Search period start: 18 October 2021 00:00
Search period end: 28 October 2021 00:00
Orbit: 381 x 1719 km, 63.3° (Epoch: 17 October)

Date Brightness Start Highest point End Pass type
(mag) Time Alt. Az. Time Alt. Az. Time Alt. Az.
22 Oct 6.8 18:30:33 10° N 18:30:47 11° N 18:30:47 11° N visible
24 Oct 6.2 18:17:36 10° N 18:18:55 18° NNE 18:18:55 18° NNE visible
25 Oct 6.8 19:05:21 10° NW 19:06:13 18° NW 19:06:13 18° NW visible
26 Oct 5.2 18:04:46 10° NNW 18:07:21 30° NE 18:07:21 30° NE visible
27 Oct 6.3 17:04:59 10° NNE 17:06:25 12° NE 17:07:54 10° ENE visible
27 Oct 5.8 18:52:46 10° NW 18:54:53 36° WNW 18:54:53 36° WNW visible
